owner,sensor,date,latitude,longitude,vertical_datum,wind_speed,wind_to_direction,wind_speed_of_gust,qcFlag 
DISL,ioos:station:DISL:MBLA:1,2008-08-01T00:00:00Z,30.4367,-88.0117,14.2,8.7,226.2,-9999.0,'1111122,1111122,1111122' 
DISL,ioos:station:DISL:MBLA:1,2008-08-01T00:30:00Z,30.4367,-88.0117,14.2,8.41,220.4,-9999.0,'1111122,1111122,1111122' 
DISL,ioos:station:DISL:MBLA:1,2008-08-01T01:00:00Z,30.4367,-88.0117,14.2,8.28,227.5,-9999.0,'1111122,1111122,1111122' 
DISL,ioos:station:DISL:MBLA:1,2008-08-01T01:30:00Z,30.4367,-88.0117,14.2,5.94,245.3,-9999.0,'1111122,1111122,1111122' 
DISL,ioos:station:DISL:MBLA:1,2008-08-01T02:00:00Z,30.4367,-88.0117,14.2,4.94,244.1,-9999.0,'1111122,1111122,1111122' 
DISL,ioos:station:DISL:MBLA:1,2008-08-01T02:30:00Z,30.4367,-88.0117,14.2,2.86,255.5,-9999.0,'1111122,1111122,1111122' 
DISL,ioos:station:DISL:MBLA:1,2008-08-01T03:00:00Z,30.4367,-88.0117,14.2,2.42,338.0,-9999.0,'1111122,1111122,1111122' 
DISL,ioos:station:DISL:MBLA:1,2008-08-01T03:30:00Z,30.4367,-88.0117,14.2,3.07,346.6,-9999.0,'1111122,1111122,1111122' 
DISL,ioos:station:DISL:MBLA:1,2008-08-01T04:00:00Z,30.4367,-88.0117,14.2,2.49,344.0,-9999.0,'1111122,1111122,1111122' 
DISL,ioos:station:DISL:MBLA:1,2008-08-01T04:30:00Z,30.4367,-88.0117,14.2,2.04,217.0,-9999.0,'1111122,1111122,1111122' 
DISL,ioos:station:DISL:MBLA:1,2008-08-01T05:00:00Z,30.4367,-88.0117,14.2,3.38,266.3,-9999.0,'1111122,1111122,1111122' 
DISL,ioos:station:DISL:MBLA:1,2008-08-01T05:30:00Z,30.4367,-88.0117,14.2,4.29,266.4,-9999.0,'1111122,1111122,1111122' 
DISL,ioos:station:DISL:MBLA:1,2008-08-01T06:00:00Z,30.4367,-88.0117,14.2,3.18,227.9,-9999.0,'1111122,1111122,1111122' 
DISL,ioos:station:DISL:MBLA:1,2008-08-01T06:30:00Z,30.4367,-88.0117,14.2,3.62,234.4,-9999.0,'1111122,1111122,1111122' 
DISL,ioos:station:DISL:MBLA:1,2008-08-01T07:00:00Z,30.4367,-88.0117,14.2,4.37,242.6,-9999.0,'1111122,1111122,1111122' 
DISL,ioos:station:DISL:MBLA:1,2008-08-01T07:30:00Z,30.4367,-88.0117,14.2,4.59,258.4,-9999.0,'1111122,1111122,1111122' 
DISL,ioos:station:DISL:MBLA:1,2008-08-01T08:00:00Z,30.4367,-88.0117,14.2,3.87,280.7,-9999.0,'1111122,1111122,1111122' 
DISL,ioos:station:DISL:MBLA:1,2008-08-01T08:30:00Z,30.4367,-88.0117,14.2,4.03,298.1,-9999.0,'1111122,1111122,1111122' 
DISL,ioos:station:DISL:MBLA:1,2008-08-01T09:00:00Z,30.4367,-88.0117,14.2,3.85,322.8,-9999.0,'1111122,1111122,1111122' 
DISL,ioos:station:DISL:MBLA:1,2008-08-01T09:30:00Z,30.4367,-88.0117,14.2,2.27,296.5,-9999.0,'1111122,1111122,1111122' 
DISL,ioos:station:DISL:MBLA:1,2008-08-01T10:00:00Z,30.4367,-88.0117,14.2,1.35,276.1,-9999.0,'1111122,1111122,1111122' 
DISL,ioos:station:DISL:MBLA:1,2008-08-01T10:30:00Z,30.4367,-88.0117,14.2,2.41,271.9,-9999.0,'1111122,1111122,1111122' 
DISL,ioos:station:DISL:MBLA:1,2008-08-01T11:00:00Z,30.4367,-88.0117,14.2,2.02,261.1,-9999.0,'1111122,1111122,1111122' 
DISL,ioos:station:DISL:MBLA:1,2008-08-01T11:30:00Z,30.4367,-88.0117,14.2,2.44,276.8,-9999.0,'1111122,1111122,1111122' 
DISL,ioos:station:DISL:MBLA:1,2008-08-01T12:00:00Z,30.4367,-88.0117,14.2,3.37,284.8,-9999.0,'1111122,1111122,1111122' 
DISL,ioos:station:DISL:MBLA:1,2008-08-01T12:30:00Z,30.4367,-88.0117,14.2,3.89,286.3,-9999.0,'1111122,1111122,1111122' 
DISL,ioos:station:DISL:MBLA:1,2008-08-01T13:00:00Z,30.4367,-88.0117,14.2,4.29,296.1,-9999.0,'1111122,1111122,1111122' 
DISL,ioos:station:DISL:MBLA:1,2008-08-01T13:30:00Z,30.4367,-88.0117,14.2,5.83,301.5,-9999.0,'1111122,1111122,1111122' 
DISL,ioos:station:DISL:MBLA:1,2008-08-01T14:00:00Z,30.4367,-88.0117,14.2,6.86,288.1,-9999.0,'1111122,1111122,1111122' 
DISL,ioos:station:DISL:MBLA:1,2008-08-01T14:30:00Z,30.4367,-88.0117,14.2,6.86,291.5,-9999.0,'1111122,1111122,1111122' 
DISL,ioos:station:DISL:MBLA:1,2008-08-01T15:00:00Z,30.4367,-88.0117,14.2,7.29,289.3,-9999.0,'1111122,1111122,1111122' 
DISL,ioos:station:DISL:MBLA:1,2008-08-01T15:30:00Z,30.4367,-88.0117,14.2,4.68,276.7,-9999.0,'1111122,1111122,1111122' 
DISL,ioos:station:DISL:MBLA:1,2008-08-01T16:00:00Z,30.4367,-88.0117,14.2,6.53,276.2,-9999.0,'1111122,1111122,1111122' 
DISL,ioos:station:DISL:MBLA:1,2008-08-01T16:30:00Z,30.4367,-88.0117,14.2,7.18,275.6,-9999.0,'1111122,1111122,1111122' 
DISL,ioos:station:DISL:MBLA:1,2008-08-01T17:00:00Z,30.4367,-88.0117,14.2,9.29,255.7,-9999.0,'1111122,1111122,1111122' 
DISL,ioos:station:DISL:MBLA:1,2008-08-01T17:30:00Z,30.4367,-88.0117,14.2,11.14,242.1,-9999.0,'1111122,1111122,1111122' 
DISL,ioos:station:DISL:MBLA:1,2008-08-01T18:00:00Z,30.4367,-88.0117,14.2,9.94,221.9,-9999.0,'1111122,1111122,1111122' 
DISL,ioos:station:DISL:MBLA:1,2008-08-01T18:30:00Z,30.4367,-88.0117,14.2,10.32,228.8,-9999.0,'1111122,1111122,1111122' 
DISL,ioos:station:DISL:MBLA:1,2008-08-01T19:00:00Z,30.4367,-88.0117,14.2,10.17,232.1,-9999.0,'1111122,1111122,1111122' 
DISL,ioos:station:DISL:MBLA:1,2008-08-01T19:30:00Z,30.4367,-88.0117,14.2,6.49,299.7,-9999.0,'1111122,1111122,1111122' 
DISL,ioos:station:DISL:MBLA:1,2008-08-01T20:00:00Z,30.4367,-88.0117,14.2,10.11,240.1,-9999.0,'1111122,1111122,1111122' 
DISL,ioos:station:DISL:MBLA:1,2008-08-01T20:30:00Z,30.4367,-88.0117,14.2,7.32,264.7,-9999.0,'1111122,1111122,1111122' 
DISL,ioos:station:DISL:MBLA:1,2008-08-01T21:00:00Z,30.4367,-88.0117,14.2,7.61,255.6,-9999.0,'1111122,1111122,1111122' 
DISL,ioos:station:DISL:MBLA:1,2008-08-01T21:30:00Z,30.4367,-88.0117,14.2,6.78,243.2,-9999.0,'1111122,1111122,1111122' 
DISL,ioos:station:DISL:MBLA:1,2008-08-01T22:00:00Z,30.4367,-88.0117,14.2,8.14,257.6,-9999.0,'1111122,1111122,1111122' 
DISL,ioos:station:DISL:MBLA:1,2008-08-01T22:30:00Z,30.4367,-88.0117,14.2,7.44,265.4,-9999.0,'1111122,1111122,1111122' 
DISL,ioos:station:DISL:MBLA:1,2008-08-01T23:00:00Z,30.4367,-88.0117,14.2,5.19,249.1,-9999.0,'1111122,1111122,1111122' 
DISL,ioos:station:DISL:MBLA:1,2008-08-01T23:30:00Z,30.4367,-88.0117,14.2,4.3,262.7,-9999.0,'1111122,1111122,1111122' 
DISL,ioos:station:DISL:MBLA:1,2008-08-02T00:00:00Z,30.4367,-88.0117,14.2,4.03,269.3,-9999.0,'1111122,1111122,1111122' 
DISL,ioos:station:DISL:MBLA:1,2008-08-02T00:30:00Z,30.4367,-88.0117,14.2,5.53,294.9,-9999.0,'1111122,1111122,1111122' 
DISL,ioos:station:DISL:MBLA:1,2008-08-02T01:00:00Z,30.4367,-88.0117,14.2,5.4,308.9,-9999.0,'1111122,1111122,1111122' 
DISL,ioos:station:DISL:MBLA:1,2008-08-02T01:30:00Z,30.4367,-88.0117,14.2,3.35,306.5,-9999.0,'1111122,1111122,1111122' 
DISL,ioos:station:DISL:MBLA:1,2008-08-02T02:00:00Z,30.4367,-88.0117,14.2,3.83,290.3,-9999.0,'1111122,1111122,1111122' 
DISL,ioos:station:DISL:MBLA:1,2008-08-02T02:30:00Z,30.4367,-88.0117,14.2,3.64,273.9,-9999.0,'1111122,1111122,1111122' 
DISL,ioos:station:DISL:MBLA:1,2008-08-02T03:00:00Z,30.4367,-88.0117,14.2,2.98,257.2,-9999.0,'1111122,1111122,1111122' 
DISL,ioos:station:DISL:MBLA:1,2008-08-02T03:30:00Z,30.4367,-88.0117,14.2,4.1,272.5,-9999.0,'1111122,1111122,1111122' 
DISL,ioos:station:DISL:MBLA:1,2008-08-02T04:00:00Z,30.4367,-88.0117,14.2,3.05,287.9,-9999.0,'1111122,1111122,1111122' 
DISL,ioos:station:DISL:MBLA:1,2008-08-02T04:30:00Z,30.4367,-88.0117,14.2,2.93,271.4,-9999.0,'1111122,1111122,1111122' 
DISL,ioos:station:DISL:MBLA:1,2008-08-02T05:00:00Z,30.4367,-88.0117,14.2,1.94,283.9,-9999.0,'1111122,1111122,1111122' 
DISL,ioos:station:DISL:MBLA:1,2008-08-02T05:30:00Z,30.4367,-88.0117,14.2,3.4,270.5,-9999.0,'1111122,1111122,1111122' 
DISL,ioos:station:DISL:MBLA:1,2008-08-02T06:00:00Z,30.4367,-88.0117,14.2,4.47,260.5,-9999.0,'1111122,1111122,1111122' 
DISL,ioos:station:DISL:MBLA:1,2008-08-02T06:30:00Z,30.4367,-88.0117,14.2,4.12,272.2,-9999.0,'1111122,1111122,1111122' 
DISL,ioos:station:DISL:MBLA:1,2008-08-02T07:00:00Z,30.4367,-88.0117,14.2,6.1,287.0,-9999.0,'1111122,1111122,1111122' 
DISL,ioos:station:DISL:MBLA:1,2008-08-02T07:30:00Z,30.4367,-88.0117,14.2,6.39,283.7,-9999.0,'1111122,1111122,1111122' 
DISL,ioos:station:DISL:MBLA:1,2008-08-02T08:00:00Z,30.4367,-88.0117,14.2,6.16,279.8,-9999.0,'1111122,1111122,1111122' 
DISL,ioos:station:DISL:MBLA:1,2008-08-02T08:30:00Z,30.4367,-88.0117,14.2,4.88,261.8,-9999.0,'1111122,1111122,1111122' 
DISL,ioos:station:DISL:MBLA:1,2008-08-02T09:00:00Z,30.4367,-88.0117,14.2,4.5,262.9,-9999.0,'1111122,1111122,1111122' 
DISL,ioos:station:DISL:MBLA:1,2008-08-02T09:30:00Z,30.4367,-88.0117,14.2,4.29,274.2,-9999.0,'1111122,1111122,1111122' 
DISL,ioos:station:DISL:MBLA:1,2008-08-02T10:00:00Z,30.4367,-88.0117,14.2,4.22,285.2,-9999.0,'1111122,1111122,1111122' 
DISL,ioos:station:DISL:MBLA:1,2008-08-02T10:30:00Z,30.4367,-88.0117,14.2,4.91,288.0,-9999.0,'1111122,1111122,1111122' 
DISL,ioos:station:DISL:MBLA:1,2008-08-02T11:00:00Z,30.4367,-88.0117,14.2,6.13,288.9,-9999.0,'1111122,1111122,1111122' 
DISL,ioos:station:DISL:MBLA:1,2008-08-02T11:30:00Z,30.4367,-88.0117,14.2,5.21,306.3,-9999.0,'1111122,1111122,1111122' 
DISL,ioos:station:DISL:MBLA:1,2008-08-02T12:00:00Z,30.4367,-88.0117,14.2,5.65,313.6,-9999.0,'1111122,1111122,1111122' 
DISL,ioos:station:DISL:MBLA:1,2008-08-02T12:30:00Z,30.4367,-88.0117,14.2,5.06,323.9,-9999.0,'1111122,1111122,1111122' 
DISL,ioos:station:DISL:MBLA:1,2008-08-02T13:00:00Z,30.4367,-88.0117,14.2,4.73,315.6,-9999.0,'1111122,1111122,1111122' 
DISL,ioos:station:DISL:MBLA:1,2008-08-02T13:30:00Z,30.4367,-88.0117,14.2,5.58,305.6,-9999.0,'1111122,1111122,1111122' 
DISL,ioos:station:DISL:MBLA:1,2008-08-02T14:00:00Z,30.4367,-88.0117,14.2,5.78,312.2,-9999.0,'1111122,1111122,1111122' 
DISL,ioos:station:DISL:MBLA:1,2008-08-02T14:30:00Z,30.4367,-88.0117,14.2,4.85,328.8,-9999.0,'1111122,1111122,1111122' 
DISL,ioos:station:DISL:MBLA:1,2008-08-02T15:00:00Z,30.4367,-88.0117,14.2,5.04,336.8,-9999.0,'1111122,1111122,1111122' 
DISL,ioos:station:DISL:MBLA:1,2008-08-02T15:30:00Z,30.4367,-88.0117,14.2,4.02,357.2,-9999.0,'1111122,1111122,1111122' 
DISL,ioos:station:DISL:MBLA:1,2008-08-02T16:00:00Z,30.4367,-88.0117,14.2,3.36,13.55,-9999.0,'1111122,1111122,1111122' 
DISL,ioos:station:DISL:MBLA:1,2008-08-02T16:30:00Z,30.4367,-88.0117,14.2,2.76,4.03,-9999.0,'1111122,1111122,1111122' 
DISL,ioos:station:DISL:MBLA:1,2008-08-02T17:00:00Z,30.4367,-88.0117,14.2,2.64,350.2,-9999.0,'1111122,1111122,1111122' 
DISL,ioos:station:DISL:MBLA:1,2008-08-02T17:30:00Z,30.4367,-88.0117,14.2,2.68,6.327,-9999.0,'1111122,1111122,1111122' 
DISL,ioos:station:DISL:MBLA:1,2008-08-02T18:00:00Z,30.4367,-88.0117,14.2,4.01,20.94,-9999.0,'1111122,1111122,1111122' 
DISL,ioos:station:DISL:MBLA:1,2008-08-02T18:30:00Z,30.4367,-88.0117,14.2,2.29,356.8,-9999.0,'1111122,1111122,1111122' 
DISL,ioos:station:DISL:MBLA:1,2008-08-02T19:00:00Z,30.4367,-88.0117,14.2,2.28,334.5,-9999.0,'1111122,1111122,1111122' 
DISL,ioos:station:DISL:MBLA:1,2008-08-02T19:30:00Z,30.4367,-88.0117,14.2,2.09,341.8,-9999.0,'1111122,1111122,1111122' 
DISL,ioos:station:DISL:MBLA:1,2008-08-02T20:00:00Z,30.4367,-88.0117,14.2,2.18,328.5,-9999.0,'1111122,1111122,1111122' 
DISL,ioos:station:DISL:MBLA:1,2008-08-02T20:30:00Z,30.4367,-88.0117,14.2,2.34,335.7,-9999.0,'1111122,1111122,1111122' 
DISL,ioos:station:DISL:MBLA:1,2008-08-02T21:00:00Z,30.4367,-88.0117,14.2,2.08,322.9,-9999.0,'1111122,1111122,1111122' 
DISL,ioos:station:DISL:MBLA:1,2008-08-02T21:30:00Z,30.4367,-88.0117,14.2,2.0,300.4,-9999.0,'1111122,1111122,1111122' 
DISL,ioos:station:DISL:MBLA:1,2008-08-02T22:00:00Z,30.4367,-88.0117,14.2,1.38,278.0,-9999.0,'1111122,1111122,1111122' 
DISL,ioos:station:DISL:MBLA:1,2008-08-02T22:30:00Z,30.4367,-88.0117,14.2,1.46,233.1,-9999.0,'1111122,1111122,1111122' 
DISL,ioos:station:DISL:MBLA:1,2008-08-02T23:00:00Z,30.4367,-88.0117,14.2,6.94,220.0,-9999.0,'1111122,1111122,1111122' 
DISL,ioos:station:DISL:MBLA:1,2008-08-02T23:30:00Z,30.4367,-88.0117,14.2,8.7,218.4,-9999.0,'1111122,1111122,1111122' 
DISL,ioos:station:DISL:MBLA:1,2008-08-03T00:00:00Z,30.4367,-88.0117,14.2,7.57,240.6,-9999.0,'1111122,1111122,1111122' 
DISL,ioos:station:DISL:MBLA:1,2008-08-03T00:30:00Z,30.4367,-88.0117,14.2,7.08,225.8,-9999.0,'1111122,1111122,1111122' 
DISL,ioos:station:DISL:MBLA:1,2008-08-03T01:00:00Z,30.4367,-88.0117,14.2,6.1,243.0,-9999.0,'1111122,1111122,1111122' 
DISL,ioos:station:DISL:MBLA:1,2008-08-03T01:30:00Z,30.4367,-88.0117,14.2,5.93,227.2,-9999.0,'1111122,1111122,1111122' 
DISL,ioos:station:DISL:MBLA:1,2008-08-03T02:00:00Z,30.4367,-88.0117,14.2,4.05,210.2,-9999.0,'1111122,1111122,1111122' 
DISL,ioos:station:DISL:MBLA:1,2008-08-03T02:30:00Z,30.4367,-88.0117,14.2,3.69,216.6,-9999.0,'1111122,1111122,1111122' 
DISL,ioos:station:DISL:MBLA:1,2008-08-03T03:00:00Z,30.4367,-88.0117,14.2,2.68,227.5,-9999.0,'1111122,1111122,1111122' 
DISL,ioos:station:DISL:MBLA:1,2008-08-03T03:30:00Z,30.4367,-88.0117,14.2,3.77,226.0,-9999.0,'1111122,1111122,1111122' 
DISL,ioos:station:DISL:MBLA:1,2008-08-03T04:00:00Z,30.4367,-88.0117,14.2,3.64,236.3,-9999.0,'1111122,1111122,1111122' 
DISL,ioos:station:DISL:MBLA:1,2008-08-03T04:30:00Z,30.4367,-88.0117,14.2,4.11,226.1,-9999.0,'1111122,1111122,1111122' 
DISL,ioos:station:DISL:MBLA:1,2008-08-03T05:00:00Z,30.4367,-88.0117,14.2,3.36,237.4,-9999.0,'1111122,1111122,1111122' 
DISL,ioos:station:DISL:MBLA:1,2008-08-03T05:30:00Z,30.4367,-88.0117,14.2,1.98,267.0,-9999.0,'1111122,1111122,1111122' 
DISL,ioos:station:DISL:MBLA:1,2008-08-03T06:00:00Z,30.4367,-88.0117,14.2,2.72,171.3,-9999.0,'1111122,1111122,1111122' 
DISL,ioos:station:DISL:MBLA:1,2008-08-03T06:30:00Z,30.4367,-88.0117,14.2,1.76,214.6,-9999.0,'1111122,1111122,1111122' 
DISL,ioos:station:DISL:MBLA:1,2008-08-03T07:00:00Z,30.4367,-88.0117,14.2,2.19,201.6,-9999.0,'1111122,1111122,1111122' 
DISL,ioos:station:DISL:MBLA:1,2008-08-03T07:30:00Z,30.4367,-88.0117,14.2,2.29,275.0,-9999.0,'1111122,1111122,1111122' 
DISL,ioos:station:DISL:MBLA:1,2008-08-03T08:00:00Z,30.4367,-88.0117,14.2,1.61,292.1,-9999.0,'1111122,1111122,1111122' 
DISL,ioos:station:DISL:MBLA:1,2008-08-03T08:30:00Z,30.4367,-88.0117,14.2,0.66,268.4,-9999.0,'1111122,1111122,1111122' 
DISL,ioos:station:DISL:MBLA:1,2008-08-03T09:00:00Z,30.4367,-88.0117,14.2,1.07,146.1,-9999.0,'1111122,1111122,1111122' 
DISL,ioos:station:DISL:MBLA:1,2008-08-03T09:30:00Z,30.4367,-88.0117,14.2,1.09,164.1,-9999.0,'1111122,1111122,1111122' 
DISL,ioos:station:DISL:MBLA:1,2008-08-03T10:00:00Z,30.4367,-88.0117,14.2,7.08,111.6,-9999.0,'1111122,1111122,1111122' 
DISL,ioos:station:DISL:MBLA:1,2008-08-03T10:30:00Z,30.4367,-88.0117,14.2,5.98,130.1,-9999.0,'1111122,1111122,1111122' 
DISL,ioos:station:DISL:MBLA:1,2008-08-03T11:00:00Z,30.4367,-88.0117,14.2,6.71,116.4,-9999.0,'1111122,1111122,1111122' 
DISL,ioos:station:DISL:MBLA:1,2008-08-03T11:30:00Z,30.4367,-88.0117,14.2,7.6,119.6,-9999.0,'1111122,1111122,1111122' 
DISL,ioos:station:DISL:MBLA:1,2008-08-03T12:00:00Z,30.4367,-88.0117,14.2,8.13,117.0,-9999.0,'1111122,1111122,1111122' 
DISL,ioos:station:DISL:MBLA:1,2008-08-03T12:30:00Z,30.4367,-88.0117,14.2,7.95,121.3,-9999.0,'1111122,1111122,1111122' 
DISL,ioos:station:DISL:MBLA:1,2008-08-03T13:00:00Z,30.4367,-88.0117,14.2,7.58,114.7,-9999.0,'1111122,1111122,1111122' 
DISL,ioos:station:DISL:MBLA:1,2008-08-03T13:30:00Z,30.4367,-88.0117,14.2,6.46,107.8,-9999.0,'1111122,1111122,1111122' 
DISL,ioos:station:DISL:MBLA:1,2008-08-03T14:00:00Z,30.4367,-88.0117,14.2,6.38,100.0,-9999.0,'1111122,1111122,1111122' 
DISL,ioos:station:DISL:MBLA:1,2008-08-03T14:30:00Z,30.4367,-88.0117,14.2,5.91,112.2,-9999.0,'1111122,1111122,1111122' 
DISL,ioos:station:DISL:MBLA:1,2008-08-03T15:00:00Z,30.4367,-88.0117,14.2,6.82,110.5,-9999.0,'1111122,1111122,1111122' 
DISL,ioos:station:DISL:MBLA:1,2008-08-03T15:30:00Z,30.4367,-88.0117,14.2,9.25,127.9,-9999.0,'1111122,1111122,1111122' 
DISL,ioos:station:DISL:MBLA:1,2008-08-03T16:00:00Z,30.4367,-88.0117,14.2,9.36,132.1,-9999.0,'1111122,1111122,1111122' 
DISL,ioos:station:DISL:MBLA:1,2008-08-03T16:30:00Z,30.4367,-88.0117,14.2,8.25,137.3,-9999.0,'1111122,1111122,1111122' 
DISL,ioos:station:DISL:MBLA:1,2008-08-03T17:00:00Z,30.4367,-88.0117,14.2,7.96,140.0,-9999.0,'1111122,1111122,1111122' 
DISL,ioos:station:DISL:MBLA:1,2008-08-03T17:30:00Z,30.4367,-88.0117,14.2,9.93,138.2,-9999.0,'1111122,1111122,1111122' 
DISL,ioos:station:DISL:MBLA:1,2008-08-03T18:00:00Z,30.4367,-88.0117,14.2,9.33,135.4,-9999.0,'1111122,1111122,1111122' 
DISL,ioos:station:DISL:MBLA:1,2008-08-03T18:30:00Z,30.4367,-88.0117,14.2,9.42,138.1,-9999.0,'1111122,1111122,1111122' 
DISL,ioos:station:DISL:MBLA:1,2008-08-03T19:00:00Z,30.4367,-88.0117,14.2,9.11,141.7,-9999.0,'1111122,1111122,1111122' 
DISL,ioos:station:DISL:MBLA:1,2008-08-03T19:30:00Z,30.4367,-88.0117,14.2,8.51,133.9,-9999.0,'1111122,1111122,1111122' 
DISL,ioos:station:DISL:MBLA:1,2008-08-03T20:00:00Z,30.4367,-88.0117,14.2,8.31,138.8,-9999.0,'1111122,1111122,1111122' 
DISL,ioos:station:DISL:MBLA:1,2008-08-03T20:30:00Z,30.4367,-88.0117,14.2,7.33,143.4,-9999.0,'1111122,1111122,1111122' 
DISL,ioos:station:DISL:MBLA:1,2008-08-03T21:00:00Z,30.4367,-88.0117,14.2,7.36,135.4,-9999.0,'1111122,1111122,1111122' 
DISL,ioos:station:DISL:MBLA:1,2008-08-03T21:30:00Z,30.4367,-88.0117,14.2,6.39,134.3,-9999.0,'1111122,1111122,1111122' 
DISL,ioos:station:DISL:MBLA:1,2008-08-03T22:00:00Z,30.4367,-88.0117,14.2,7.04,134.9,-9999.0,'1111122,1111122,1111122' 
DISL,ioos:station:DISL:MBLA:1,2008-08-03T22:30:00Z,30.4367,-88.0117,14.2,7.95,128.9,-9999.0,'1111122,1111122,1111122' 
DISL,ioos:station:DISL:MBLA:1,2008-08-03T23:00:00Z,30.4367,-88.0117,14.2,8.84,132.2,-9999.0,'1111122,1111122,1111122' 
DISL,ioos:station:DISL:MBLA:1,2008-08-03T23:30:00Z,30.4367,-88.0117,14.2,8.63,125.5,-9999.0,'1111122,1111122,1111122' 
DISL,ioos:station:DISL:MBLA:1,2008-08-04T00:00:00Z,30.4367,-88.0117,14.2,7.56,112.7,-9999.0,'1111122,1111122,1111122' 
DISL,ioos:station:DISL:MBLA:1,2008-08-04T00:30:00Z,30.4367,-88.0117,14.2,7.44,114.0,-9999.0,'1111122,1111122,1111122' 
DISL,ioos:station:DISL:MBLA:1,2008-08-04T01:00:00Z,30.4367,-88.0117,14.2,8.3,109.0,-9999.0,'1111122,1111122,1111122' 
DISL,ioos:station:DISL:MBLA:1,2008-08-04T01:30:00Z,30.4367,-88.0117,14.2,6.94,102.0,-9999.0,'1111122,1111122,1111122' 
DISL,ioos:station:DISL:MBLA:1,2008-08-04T02:00:00Z,30.4367,-88.0117,14.2,5.87,98.8,-9999.0,'1111122,1111122,1111122' 
DISL,ioos:station:DISL:MBLA:1,2008-08-04T02:30:00Z,30.4367,-88.0117,14.2,5.8,105.0,-9999.0,'1111122,1111122,1111122' 
DISL,ioos:station:DISL:MBLA:1,2008-08-04T03:00:00Z,30.4367,-88.0117,14.2,5.86,105.9,-9999.0,'1111122,1111122,1111122' 
DISL,ioos:station:DISL:MBLA:1,2008-08-04T03:30:00Z,30.4367,-88.0117,14.2,5.04,99.3,-9999.0,'1111122,1111122,1111122' 
DISL,ioos:station:DISL:MBLA:1,2008-08-04T04:00:00Z,30.4367,-88.0117,14.2,4.71,87.7,-9999.0,'1111122,1111122,1111122' 
DISL,ioos:station:DISL:MBLA:1,2008-08-04T04:30:00Z,30.4367,-88.0117,14.2,4.74,93.5,-9999.0,'1111122,1111122,1111122' 
DISL,ioos:station:DISL:MBLA:1,2008-08-04T05:00:00Z,30.4367,-88.0117,14.2,4.98,95.9,-9999.0,'1111122,1111122,1111122' 
DISL,ioos:station:DISL:MBLA:1,2008-08-04T05:30:00Z,30.4367,-88.0117,14.2,5.27,99.2,-9999.0,'1111122,1111122,1111122' 
DISL,ioos:station:DISL:MBLA:1,2008-08-04T06:00:00Z,30.4367,-88.0117,14.2,4.8,93.6,-9999.0,'1111122,1111122,1111122' 
DISL,ioos:station:DISL:MBLA:1,2008-08-04T06:30:00Z,30.4367,-88.0117,14.2,4.75,95.6,-9999.0,'1111122,1111122,1111122' 
DISL,ioos:station:DISL:MBLA:1,2008-08-04T07:00:00Z,30.4367,-88.0117,14.2,7.06,121.4,-9999.0,'1111122,1111122,1111122' 
DISL,ioos:station:DISL:MBLA:1,2008-08-04T07:30:00Z,30.4367,-88.0117,14.2,7.97,132.8,-9999.0,'1111122,1111122,1111122' 
DISL,ioos:station:DISL:MBLA:1,2008-08-04T08:00:00Z,30.4367,-88.0117,14.2,8.97,128.2,-9999.0,'1111122,1111122,1111122' 
DISL,ioos:station:DISL:MBLA:1,2008-08-04T08:30:00Z,30.4367,-88.0117,14.2,9.39,130.5,-9999.0,'1111122,1111122,1111122' 
DISL,ioos:station:DISL:MBLA:1,2008-08-04T09:00:00Z,30.4367,-88.0117,14.2,6.32,86.5,-9999.0,'1111122,1111122,1111122' 
DISL,ioos:station:DISL:MBLA:1,2008-08-04T09:30:00Z,30.4367,-88.0117,14.2,4.7,61.18,-9999.0,'1111122,1111122,1111122' 
DISL,ioos:station:DISL:MBLA:1,2008-08-04T10:00:00Z,30.4367,-88.0117,14.2,4.76,79.8,-9999.0,'1111122,1111122,1111122' 
DISL,ioos:station:DISL:MBLA:1,2008-08-04T10:30:00Z,30.4367,-88.0117,14.2,5.03,76.0,-9999.0,'1111122,1111122,1111122' 
DISL,ioos:station:DISL:MBLA:1,2008-08-04T11:00:00Z,30.4367,-88.0117,14.2,5.09,84.1,-9999.0,'1111122,1111122,1111122' 
DISL,ioos:station:DISL:MBLA:1,2008-08-04T11:30:00Z,30.4367,-88.0117,14.2,5.37,85.9,-9999.0,'1111122,1111122,1111122' 
DISL,ioos:station:DISL:MBLA:1,2008-08-04T12:00:00Z,30.4367,-88.0117,14.2,4.95,80.9,-9999.0,'1111122,1111122,1111122' 
DISL,ioos:station:DISL:MBLA:1,2008-08-04T12:30:00Z,30.4367,-88.0117,14.2,4.9,65.28,-9999.0,'1111122,1111122,1111122' 
DISL,ioos:station:DISL:MBLA:1,2008-08-04T13:00:00Z,30.4367,-88.0117,14.2,4.91,69.15,-9999.0,'1111122,1111122,1111122' 
DISL,ioos:station:DISL:MBLA:1,2008-08-04T13:30:00Z,30.4367,-88.0117,14.2,5.3,73.6,-9999.0,'1111122,1111122,1111122' 
DISL,ioos:station:DISL:MBLA:1,2008-08-04T14:00:00Z,30.4367,-88.0117,14.2,5.19,79.5,-9999.0,'1111122,1111122,1111122' 
DISL,ioos:station:DISL:MBLA:1,2008-08-04T14:30:00Z,30.4367,-88.0117,14.2,5.2,70.9,-9999.0,'1111122,1111122,1111122' 
DISL,ioos:station:DISL:MBLA:1,2008-08-04T15:00:00Z,30.4367,-88.0117,14.2,4.98,64.31,-9999.0,'1111122,1111122,1111122' 
DISL,ioos:station:DISL:MBLA:1,2008-08-04T15:30:00Z,30.4367,-88.0117,14.2,5.34,90.4,-9999.0,'1111122,1111122,1111122' 
DISL,ioos:station:DISL:MBLA:1,2008-08-04T16:00:00Z,30.4367,-88.0117,14.2,5.36,112.3,-9999.0,'1111122,1111122,1111122' 
DISL,ioos:station:DISL:MBLA:1,2008-08-04T16:30:00Z,30.4367,-88.0117,14.2,8.12,125.2,-9999.0,'1111122,1111122,1111122' 
DISL,ioos:station:DISL:MBLA:1,2008-08-04T17:00:00Z,30.4367,-88.0117,14.2,8.35,125.8,-9999.0,'1111122,1111122,1111122' 
DISL,ioos:station:DISL:MBLA:1,2008-08-04T17:30:00Z,30.4367,-88.0117,14.2,7.49,130.9,-9999.0,'1111122,1111122,1111122' 
DISL,ioos:station:DISL:MBLA:1,2008-08-04T18:00:00Z,30.4367,-88.0117,14.2,8.41,137.1,-9999.0,'1111122,1111122,1111122' 
DISL,ioos:station:DISL:MBLA:1,2008-08-04T18:30:00Z,30.4367,-88.0117,14.2,8.33,135.3,-9999.0,'1111122,1111122,1111122' 
DISL,ioos:station:DISL:MBLA:1,2008-08-04T19:00:00Z,30.4367,-88.0117,14.2,8.49,138.5,-9999.0,'1111122,1111122,1111122' 
DISL,ioos:station:DISL:MBLA:1,2008-08-04T19:30:00Z,30.4367,-88.0117,14.2,7.73,132.7,-9999.0,'1111122,1111122,1111122' 
DISL,ioos:station:DISL:MBLA:1,2008-08-04T20:00:00Z,30.4367,-88.0117,14.2,7.25,142.5,-9999.0,'1111122,1111122,1111122' 
DISL,ioos:station:DISL:MBLA:1,2008-08-04T20:30:00Z,30.4367,-88.0117,14.2,8.03,172.5,-9999.0,'1111122,1111122,1111122' 
DISL,ioos:station:DISL:MBLA:1,2008-08-04T21:00:00Z,30.4367,-88.0117,14.2,6.96,146.4,-9999.0,'1111122,1111122,1111122' 
DISL,ioos:station:DISL:MBLA:1,2008-08-04T21:30:00Z,30.4367,-88.0117,14.2,7.07,145.7,-9999.0,'1111122,1111122,1111122' 
DISL,ioos:station:DISL:MBLA:1,2008-08-04T22:00:00Z,30.4367,-88.0117,14.2,7.21,149.4,-9999.0,'1111122,1111122,1111122' 
DISL,ioos:station:DISL:MBLA:1,2008-08-04T22:30:00Z,30.4367,-88.0117,14.2,7.32,158.0,-9999.0,'1111122,1111122,1111122' 
DISL,ioos:station:DISL:MBLA:1,2008-08-04T23:00:00Z,30.4367,-88.0117,14.2,5.77,155.2,-9999.0,'1111122,1111122,1111122' 
DISL,ioos:station:DISL:MBLA:1,2008-08-04T23:30:00Z,30.4367,-88.0117,14.2,5.48,160.1,-9999.0,'1111122,1111122,1111122' 
DISL,ioos:station:DISL:MBLA:1,2008-08-05T00:00:00Z,30.4367,-88.0117,14.2,4.77,170.8,-9999.0,'1111122,1111122,1111122' 
DISL,ioos:station:DISL:MBLA:1,2008-08-05T00:30:00Z,30.4367,-88.0117,14.2,4.28,157.6,-9999.0,'1111122,1111122,1111122' 
DISL,ioos:station:DISL:MBLA:1,2008-08-05T01:00:00Z,30.4367,-88.0117,14.2,4.75,141.9,-9999.0,'1111122,1111122,1111122' 
DISL,ioos:station:DISL:MBLA:1,2008-08-05T01:30:00Z,30.4367,-88.0117,14.2,4.84,137.4,-9999.0,'1111122,1111122,1111122' 
DISL,ioos:station:DISL:MBLA:1,2008-08-05T02:00:00Z,30.4367,-88.0117,14.2,5.13,148.3,-9999.0,'1111122,1111122,1111122' 
DISL,ioos:station:DISL:MBLA:1,2008-08-05T02:30:00Z,30.4367,-88.0117,14.2,4.97,159.2,-9999.0,'1111122,1111122,1111122' 
DISL,ioos:station:DISL:MBLA:1,2008-08-05T03:00:00Z,30.4367,-88.0117,14.2,6.31,153.5,-9999.0,'1111122,1111122,1111122' 
DISL,ioos:station:DISL:MBLA:1,2008-08-05T03:30:00Z,30.4367,-88.0117,14.2,5.62,151.8,-9999.0,'1111122,1111122,1111122' 
DISL,ioos:station:DISL:MBLA:1,2008-08-05T04:00:00Z,30.4367,-88.0117,14.2,6.08,150.4,-9999.0,'1111122,1111122,1111122' 